Wind_Speed
42 42 44 45 46 47 48 48 48 49 50 49 48 48 49 48 48 48 48 50 51 50 50 50 50 51 51 51 50 50 51 51 51 50 51 51 52 52 52 51 51 51 50
42 44 44 44 46 47 48 49 48 48 49 50 50 49 48 48 48 48 48 49 50 50 49 49 49 50 51 51 52 52 51 51 52 52 52 52 52 52 51 51 51 52 51
42 43 44 45 46 46 47 49 49 50 50 50 50 50 49 48 49 49 49 49 49 49 50 50 50 50 51 51 51 52 53 53 53 52 52 52 52 52 52 51 51 52 52
40 42 43 44 45 45 46 48 49 50 50 51 51 51 50 50 50 50 49 50 50 50 50 50 51 51 51 51 52 53 53 53 53 53 53 52 52 52 53 52 52 52 52
39 41 43 43 44 45 46 47 48 49 49 50 51 51 51 51 51 51 51 51 51 51 51 51 52 53 53 53 53 53 54 54 54 54 54 53 53 53 53 53 53 52 52
39 40 40 41 42 44 44 46 46 48 49 49 50 52 52 51 51 51 51 51 51 51 52 52 53 53 54 55 55 55 55 55 55 55 54 54 54 54 54 54 54 53 53
38 39 40 40 41 42 43 44 45 46 47 47 49 50 51 51 52 52 52 52 52 52 52 53 53 53 54 54 55 55 56 55 55 55 55 54 54 54 55 55 55 54 54
37 38 39 39 40 40 42 43 44 45 45 46 47 48 50 51 51 51 52 52 52 53 53 53 53 53 53 54 55 55 55 55 56 56 55 55 55 56 56 56 56 55 55
37 37 38 39 40 41 41 42 43 44 44 45 46 47 49 49 50 51 52 52 52 53 53 53 53 54 54 54 55 55 55 55 55 55 56 55 56 56 56 56 55 55 55
36 37 38 38 40 40 41 41 42 43 43 44 45 47 48 49 49 50 51 52 52 52 52 53 54 54 55 55 55 55 54 55 55 55 55 56 56 56 56 56 56 56 55
36 36 37 38 39 40 40 42 42 43 44 45 45 46 47 48 49 50 50 51 51 51 52 52 52 53 54 54 54 54 54 54 54 54 55 55 55 55 55 55 55 55 55
36 36 37 37 38 39 40 41 42 43 44 45 45 45 46 47 47 48 49 50 50 50 50 50 51 52 52 53 54 54 54 54 54 54 54 54 54 54 54 54 54 54 54
35 36 36 37 38 39 39 40 41 42 43 44 45 45 45 46 47 47 48 49 49 49 48 48 49 50 52 53 53 53 54 54 53 53 53 53 53 54 54 54 53 53 53
34 35 36 36 37 38 39 40 41 42 43 43 43 44 43 44 45 46 47 48 48 48 48 47 48 48 49 50 51 51 51 52 52 52 52 53 53 53 53 52 52 52 52
33 34 35 36 37 38 39 40 40 41 41 41 41 41 41 41 41 43 44 46 47 47 47 47 46 47 47 47 48 48 49 49 49 50 50 50 51 51 51 51 51 51 51
32 33 34 35 36 37 38 38 39 39 39 40 40 40 40 40 41 41 41 42 43 45 46 45 45 45 46 46 47 47 47 47 47 47 47 48 48 49 49 49 50 50 50
31 31 32 33 34 35 36 36 37 37 38 38 38 39 39 39 40 40 41 42 43 44 44 44 44 44 45 46 46 46 46 46 46 46 46 45 45 46 46 47 48 49 49
29 29 30 31 31 32 33 34 34 34 35 36 36 37 38 38 39 39 40 41 42 43 43 43 44 44 44 44 44 44 44 45 45 45 44 43 43 43 44 45 46 47 47
27 27 28 28 29 30 31 32 33 34 34 35 35 36 37 37 38 38 38 39 40 41 42 42 43 43 43 43 42 42 43 43 42 41 41 41 41 42 42 43 44 45 46
27 27 28 28 29 30 30 31 31 32 33 34 35 36 36 36 37 37 38 38 39 39 39 40 40 41 41 41 41 41 41 41 40 40 40 40 40 40 41 42 43 43 44
27 27 28 29 29 29 29 30 30 31 32 33 34 35 36 36 36 37 37 38 38 38 38 38 39 40 40 40 39 39 39 39 40 40 40 40 40 40 41 41 42 42 43
28 27 27 27 28 28 28 29 29 30 30 32 33 33 34 35 35 36 36 37 37 37 37 37 38 38 38 38 38 38 38 38 39 39 40 40 41 40 40 40 41 41 41
27 27 27 27 27 27 28 28 29 30 30 31 31 32 33 34 34 34 35 35 35 36 36 36 36 36 37 37 37 37 37 37 38 38 38 39 39 39 39 39 39 40 40
27 26 26 27 27 27 27 28 29 29 29 30 30 31 32 32 33 33 33 33 33 34 34 34 34 34 35 35 36 36 37 36 36 37 37 37 37 38 38 38 38 38 39
25 25 25 25 26 26 27 27 27 28 28 29 29 30 30 31 31 31 31 31 31 32 32 33 33 34 34 35 35 36 36 36 36 36 36 36 36 37 37 37 36 36 37
25 24 24 24 24 25 25 25 25 25 26 26 26 27 27 28 28 29 29 29 30 30 31 32 32 32 32 33 33 34 34 35 36 36 36 36 36 36 36 35 35 35 36
Wind_Direction
254 254 253 252 251 250 249 249 249 249 248 248 249 249 250 250 250 251 252 252 251 251 251 251 252 252 252 254 255 256 257 258 259 260 261 262 262 263 263 264 265 265 267
257 256 255 254 253 251 249 249 250 249 248 248 248 249 250 251 251 251 251 251 251 252 253 253 253 253 253 253 253 254 256 258 259 261 261 261 262 263 263 264 265 266 267
259 257 257 256 254 251 250 250 250 250 249 249 249 249 250 250 251 251 252 252 253 254 255 255 254 255 255 254 254 255 256 258 259 260 260 261 262 263 264 264 266 267 267
259 257 257 256 255 252 251 251 251 250 250 250 250 250 250 251 251 252 253 253 254 255 255 255 255 255 255 255 255 256 257 258 259 260 261 262 262 263 264 264 266 266 267
260 259 257 257 255 253 251 251 250 249 250 250 250 250 252 252 252 252 253 254 254 255 256 256 256 255 255 255 256 257 258 259 260 261 262 262 263 263 264 265 265 266 266
260 260 259 258 256 253 251 251 251 250 250 250 250 251 252 252 253 254 254 254 254 255 256 256 256 256 256 256 256 257 258 259 260 262 262 263 263 263 264 265 265 266 266
262 260 258 257 255 253 253 252 252 251 251 250 251 252 252 253 254 256 255 255 255 255 256 256 257 257 257 257 257 258 259 260 261 262 263 263 263 263 264 265 266 267 267
264 261 259 257 255 255 254 252 251 251 251 251 251 252 253 255 255 256 256 256 255 255 255 256 257 257 258 258 258 259 260 261 262 262 263 263 264 264 265 265 266 267 267
263 262 261 259 258 257 257 254 253 252 251 251 252 253 254 255 256 256 257 256 256 257 257 257 257 258 258 259 259 259 259 260 262 263 263 264 264 264 265 266 267 267 267
265 263 261 260 259 258 257 255 253 253 252 253 254 254 255 256 256 257 257 257 257 257 257 258 258 258 258 259 260 260 260 261 262 263 264 264 264 264 265 267 268 268 268
265 264 262 260 259 259 257 255 254 254 254 255 255 255 256 256 257 257 257 258 258 258 258 259 259 259 259 259 259 260 261 261 262 262 263 263 264 265 265 267 268 268 268
267 265 262 261 260 260 258 256 255 256 256 256 256 256 257 256 257 258 259 260 259 259 259 260 259 258 258 259 259 260 261 261 262 263 264 264 264 265 265 266 267 267 268
267 265 263 262 261 261 260 258 257 258 258 258 258 257 257 257 257 258 259 259 259 259 259 259 259 259 259 259 259 260 261 262 262 263 264 265 265 265 266 266 267 267 268
268 266 264 264 264 263 261 260 259 259 259 259 259 258 258 257 257 257 258 259 258 258 259 259 260 260 259 260 260 261 262 262 263 263 264 264 265 265 266 266 266 266 267
270 269 267 266 265 264 263 261 261 260 260 259 259 259 258 258 259 259 258 258 257 257 257 258 259 260 259 260 260 261 261 262 263 264 264 264 265 265 266 265 266 266 266
274 272 271 269 268 266 264 263 262 262 261 259 259 259 259 259 259 260 260 259 258 258 257 258 258 260 260 260 261 261 261 262 263 264 264 265 266 265 265 265 265 265 267
276 275 273 272 270 267 265 263 263 262 261 260 259 259 259 260 260 261 261 260 259 259 259 259 260 261 261 261 261 262 262 263 263 263 264 265 265 265 265 265 265 265 266
279 277 275 273 271 269 266 265 263 262 261 261 261 260 260 260 261 261 261 260 259 259 259 260 260 261 261 261 261 261 262 262 263 263 263 264 265 265 266 266 266 265 265
281 280 277 275 272 270 268 266 264 263 262 261 261 261 261 261 261 262 262 262 260 260 259 259 260 260 260 260 260 261 260 260 260 261 262 263 265 265 266 266 267 267 267
283 281 280 277 274 272 270 268 266 264 263 262 261 261 262 262 262 262 263 263 262 261 261 260 260 259 259 259 259 259 259 259 258 259 261 263 265 266 267 267 268 268 268
281 280 279 278 276 274 273 270 268 266 265 264 264 263 263 264 263 263 264 264 264 263 263 262 261 260 258 258 258 258 259 259 259 259 260 263 265 266 268 268 269 270 270
281 281 281 279 277 276 274 273 271 269 268 268 267 266 266 265 265 266 265 265 264 264 263 262 261 260 258 257 258 258 259 261 261 260 261 263 265 266 267 269 270 271 272
282 282 281 279 278 276 275 274 273 271 270 270 268 267 267 267 267 266 265 264 263 262 261 261 260 260 258 258 258 259 260 260 261 261 262 262 263 265 267 269 270 272 273
285 282 281 280 279 277 276 276 275 273 272 271 270 270 269 268 267 266 265 263 262 261 260 259 259 259 259 259 259 259 259 260 261 262 262 262 264 265 266 268 270 272 273
287 284 281 280 279 278 278 277 277 275 274 274 273 271 270 268 266 264 263 262 261 260 259 259 259 259 258 258 259 259 259 260 261 262 263 263 264 265 266 268 270 272 273
287 286 284 282 281 280 279 279 278 277 276 276 276 274 271 269 267 264 263 262 262 262 261 260 259 259 259 258 259 259 260 262 262 263 262 263 265 266 267 268 270 272 273
Height
5592 5593 5594 5596 5598 5600 5603 5605 5608 5610 5613 5617 5620 5623 5626 5628 5631 5633 5635 5638 5641 5643 5646 5649 5651 5654 5656 5658 5660 5663 5665 5667 5669 5672 5672 5673 5673 5673 5674 5674 5675 5675 5676
5580 5581 5582 5584 5585 5587 5590 5592 5595 5597 5600 5603 5607 5610 5613 5615 5618 5620 5622 5624 5628 5630 5633 5635 5638 5640 5642 5645 5647 5649 5651 5653 5655 5657 5658 5659 5659 5659 5660 5660 5661 5661 5662
5568 5569 5570 5571 5572 5574 5576 5579 5581 5584 5587 5590 5593 5596 5599 5602 5605 5607 5609 5612 5614 5617 5619 5622 5624 5626 5628 5630 5633 5635 5637 5639 5640 5642 5644 5644 5645 5645 5646 5647 5647 5647 5648
5555 5556 5557 5558 5559 5561 5563 5565 5568 5570 5573 5577 5580 5583 5586 5589 5592 5594 5596 5598 5601 5603 5605 5607 5610 5613 5615 5617 5619 5621 5622 5624 5626 5627 5629 5630 5631 5631 5631 5632 5633 5634 5634
5543 5544 5545 5545 5546 5548 5550 5552 5554 5557 5560 5563 5566 5569 5572 5575 5578 5580 5583 5585 5587 5589 5591 5593 5596 5598 5600 5602 5604 5606 5607 5609 5611 5612 5614 5615 5616 5616 5617 5618 5618 5619 5620
5531 5532 5532 5533 5534 5535 5537 5539 5541 5544 5547 5549 5552 5555 5558 5561 5563 5566 5568 5570 5572 5575 5577 5579 5581 5583 5585 5586 5589 5590 5592 5594 5595 5597 5599 5600 5601 5601 5602 5602 5603 5604 5606
5519 5520 5520 5520 5521 5523 5524 5526 5528 5531 5533 5535 5538 5541 5544 5547 5549 5551 5553 5555 5558 5560 5562 5564 5566 5568 5569 5571 5573 5575 5577 5578 5580 5582 5583 5584 5585 5586 5587 5588 5588 5588 5590
5508 5508 5508 5508 5509 5510 5512 5514 5516 5518 5520 5522 5525 5528 5530 5533 5535 5536 5538 5540 5543 5545 5547 5549 5551 5553 5554 5556 5558 5559 5561 5563 5564 5566 5568 5569 5568 5569 5570 5571 5571 5572 5573
5496 5496 5496 5497 5497 5498 5499 5501 5503 5505 5507 5509 5512 5514 5516 5519 5520 5522 5524 5526 5528 5531 5533 5534 5536 5538 5540 5540 5542 5545 5546 5547 5547 5549 5550 5551 5552 5553 5554 5554 5555 5556 5558
5484 5484 5485 5485 5485 5486 5487 5489 5491 5493 5495 5497 5499 5501 5503 5505 5506 5508 5509 5511 5514 5516 5518 5520 5521 5523 5524 5524 5527 5529 5531 5532 5533 5534 5535 5535 5536 5537 5537 5538 5539 5539 5540
5473 5473 5473 5473 5474 5475 5476 5477 5478 5480 5482 5484 5486 5487 5489 5491 5492 5493 5495 5496 5499 5501 5502 5504 5506 5507 5508 5509 5511 5513 5515 5516 5517 5518 5519 5520 5521 5522 5522 5523 5523 5523 5524
5462 5461 5462 5462 5462 5462 5463 5464 5466 5467 5469 5470 5472 5473 5474 5476 5477 5479 5480 5482 5484 5486 5488 5489 5490 5491 5492 5494 5496 5498 5499 5500 5501 5502 5504 5505 5506 5507 5507 5507 5507 5507 5508
5450 5450 5450 5450 5450 5450 5451 5452 5453 5454 5456 5457 5458 5460 5461 5462 5463 5464 5465 5467 5468 5470 5472 5474 5475 5476 5477 5478 5480 5482 5483 5484 5486 5487 5489 5490 5490 5490 5490 5491 5491 5491 5492
5439 5439 5439 5439 5439 5438 5439 5440 5441 5442 5443 5444 5445 5446 5447 5448 5448 5449 5450 5452 5454 5455 5457 5459 5460 5460 5462 5463 5465 5466 5468 5469 5470 5472 5473 5474 5474 5474 5475 5475 5475 5476 5477
5429 5428 5427 5427 5427 5427 5427 5428 5429 5430 5430 5432 5432 5433 5434 5435 5435 5436 5437 5438 5440 5442 5443 5444 5446 5447 5448 5449 5450 5452 5453 5454 5455 5457 5457 5458 5459 5459 5459 5459 5460 5461 5462
5418 5417 5416 5416 5415 5415 5416 5417 5417 5418 5419 5419 5420 5421 5422 5423 5423 5423 5424 5425 5426 5428 5429 5431 5432 5433 5435 5436 5437 5438 5439 5440 5441 5442 5443 5443 5444 5444 5445 5445 5446 5446 5447
5408 5407 5406 5405 5404 5404 5404 5405 5405 5406 5406 5407 5408 5408 5409 5410 5411 5412 5412 5413 5414 5415 5416 5418 5419 5420 5421 5422 5423 5424 5425 5426 5427 5428 5429 5429 5430 5430 5430 5431 5431 5432 5432
5399 5397 5396 5395 5394 5394 5394 5394 5394 5395 5395 5395 5396 5397 5398 5398 5399 5399 5400 5401 5401 5402 5404 5405 5406 5407 5408 5409 5410 5411 5412 5412 5413 5414 5415 5416 5416 5417 5417 5417 5417 5418 5418
5390 5389 5387 5386 5385 5385 5384 5384 5384 5384 5384 5385 5385 5386 5386 5387 5388 5388 5388 5389 5389 5390 5391 5392 5392 5393 5394 5395 5396 5397 5398 5399 5400 5401 5402 5403 5404 5404 5404 5404 5404 5404 5404
5382 5380 5379 5377 5376 5375 5374 5374 5373 5373 5373 5374 5374 5375 5375 5376 5376 5376 5377 5377 5378 5378 5378 5379 5379 5380 5381 5382 5383 5384 5385 5387 5388 5389 5390 5391 5391 5392 5392 5392 5392 5391 5391
5373 5371 5370 5368 5367 5366 5365 5364 5363 5363 5363 5363 5363 5363 5364 5364 5365 5365 5365 5365 5366 5366 5366 5367 5367 5368 5369 5370 5371 5372 5373 5374 5376 5377 5378 5379 5379 5379 5380 5379 5379 5379 5378
5363 5362 5360 5359 5357 5356 5355 5354 5354 5353 5353 5353 5353 5353 5353 5353 5353 5353 5353 5353 5353 5353 5354 5354 5355 5355 5357 5358 5359 5361 5362 5363 5364 5365 5366 5366 5367 5367 5367 5367 5367 5366 5366
5354 5352 5351 5349 5348 5347 5346 5345 5344 5344 5343 5343 5343 5342 5342 5342 5342 5341 5341 5341 5341 5341 5342 5342 5343 5344 5345 5346 5347 5349 5350 5351 5352 5353 5353 5354 5355 5355 5355 5355 5355 5354 5354
5345 5343 5341 5340 5339 5338 5337 5336 5335 5334 5333 5333 5332 5332 5331 5330 5330 5330 5329 5329 5330 5330 5330 5331 5332 5332 5333 5334 5336 5337 5338 5339 5340 5340 5341 5342 5343 5343 5343 5343 5343 5342 5341
5336 5334 5333 5331 5330 5329 5328 5327 5325 5324 5324 5323 5322 5321 5320 5319 5319 5319 5318 5319 5319 5319 5320 5320 5321 5321 5322 5323 5324 5325 5326 5327 5328 5329 5329 5330 5331 5331 5331 5331 5331 5330 5330
5328 5326 5325 5323 5322 5320 5319 5318 5317 5315 5314 5313 5312 5311 5310 5309 5309 5308 5308 5309 5309 5309 5309 5309 5310 5310 5311 5312 5313 5314 5314 5315 5316 5317 5318 5318 5319 5319 5320 5320 5320 5319 5319